| time (UTC) | temp F | wind direction | speed MPH | gust MPH | rain 1hr in | rain 24hr in | rain mn in | humidity % | barometer mb |
| 20260506101550 | 74 | 107 | 0.0 | 1.0 | 0.00 | 0.00 | 0.00 | 89 | 1006.8 |
| 20260506100109 | 74 | 96 | 0.0 | 3.0 | 0.00 | 0.00 | 0.00 | 89 | 1006.8 |
| 20260506094553 | 74 | 132 | 0.0 | 4.0 | 0.00 | 0.00 | 0.00 | 89 | 1006.8 |
| 20260506093057 | 74 | 138 | 1.0 | 9.0 | 0.00 | 0.00 | 0.00 | 89 | 1006.8 |
| 20260506091602 | 74 | 136 | 1.0 | 7.0 | 0.00 | 0.00 | 0.00 | 89 | 1006.7 |
| 20260506090109 | 74 | 118 | 1.0 | 5.0 | 0.00 | 0.00 | 0.00 | 89 | 1006.6 |
| 20260506084604 | 74 | 115 | 0.0 | 3.0 | 0.00 | 0.00 | 0.00 | 89 | 1006.8 |
| 20260506083123 | 75 | 120 | 1.0 | 8.0 | 0.00 | 0.00 | 0.00 | 89 | 1006.7 |
| 20260506081559 | 74 | 138 | 3.0 | 9.0 | 0.00 | 0.00 | 0.00 | 89 | 1006.8 |
| 20260506073038 | 74 | 140 | 2.0 | 4.0 | 0.00 | 0.00 | 0.00 | 88 | 1006.8 |
| 20260506071555 | 74 | 110 | 2.0 | 7.0 | 0.00 | 0.00 | 0.00 | 88 | 1006.9 |
| 20260506070123 | 74 | 132 | 2.0 | 7.0 | 0.00 | 0.00 | 0.00 | 88 | 1006.8 |
| 20260506061557 | 74 | 173 | 2.0 | 9.0 | 0.00 | 0.00 | 0.00 | 87 | 1006.5 |
| 20260506060118 | 74 | 94 | 2.0 | 9.0 | 0.00 | 0.00 | 0.00 | 87 | 1006.4 |
| 20260506050126 | 75 | 221 | 2.0 | 9.0 | 0.00 | 0.00 | 0.00 | 86 | 1006.5 |
| 20260506044558 | 75 | 249 | 2.0 | 8.0 | 0.00 | 0.00 | 0.00 | 86 | 1006.4 |
| 20260506043112 | 75 | 242 | 1.0 | 6.0 | 0.00 | 0.00 | 0.00 | 85 | 1006.2 |
| 20260506041557 | 76 | 198 | 2.0 | 7.0 | 0.00 | 0.00 | 0.00 | 85 | 1006.1 |
| 20260506040114 | 76 | 219 | 1.0 | 4.0 | 0.00 | 0.00 | 0.00 | 85 | 1006.2 |
| 20260506034559 | 76 | 189 | 2.0 | 7.0 | 0.00 | 0.00 | 0.00 | 84 | 1005.8 |
| 20260506033104 | 76 | 186 | 1.0 | 5.0 | 0.00 | 0.00 | 0.00 | 84 | 1005.7 |
| 20260506031503 | 77 | 180 | 0.0 | 5.0 | 0.00 | 0.00 | 0.00 | 83 | 1005.4 |
| 20260506030122 | 77 | 148 | 2.0 | 4.0 | 0.00 | 0.00 | 0.00 | 83 | 1005.2 |
| 20260506024608 | 77 | 200 | 2.0 | 6.0 | 0.00 | 0.00 | 0.00 | 83 | 1005.0 |
| 20260506023006 | 77 | 180 | 2.0 | 6.0 | 0.00 | 0.00 | 0.00 | 82 | 1004.7 |
| 20260506021519 | 77 | 199 | 0.0 | 3.0 | 0.00 | 0.00 | 0.00 | 82 | 1004.5 |
| 20260506020057 | 77 | 184 | 0.0 | 0.0 | 0.00 | 0.00 | 0.00 | 81 | 1004.4 |
| 20260506014540 | 78 | 181 | 0.0 | 2.0 | 0.00 | 0.00 | 0.00 | 81 | 1004.3 |
| 20260506013050 | 79 | 184 | 0.0 | 2.0 | 0.00 | 0.00 | 0.00 | 80 | 1004.2 |
| 20260506011505 | 79 | 231 | 0.0 | 3.0 | 0.00 | 0.00 | 0.00 | 80 | 1004.1 |
| 20260506010108 | 80 | 251 | 1.0 | 3.0 | 0.00 | 0.00 | 0.00 | 79 | 1004.0 |
| 20260506004605 | 81 | 255 | 2.0 | 5.0 | 0.00 | 0.00 | 0.00 | 79 | 1004.1 |
| 20260506003108 | 81 | 228 | 2.0 | 7.0 | 0.00 | 0.00 | 0.00 | 78 | 1003.9 |
| 20260506001505 | 81 | 254 | 2.0 | 7.0 | 0.00 | 0.00 | 0.00 | 78 | 1003.9 |
| 20260506000123 | 82 | 242 | 4.0 | 8.0 | 0.00 | 0.00 | 0.00 | 78 | 1003.8 |
| 20260505234555 | 82 | 250 | 3.0 | 9.0 | 0.00 | 0.00 | 0.00 | 78 | 1003.5 |
| 20260505233057 | 82 | 260 | 6.0 | 13.0 | 0.00 | 0.00 | 0.00 | 77 | 1003.5 |
| 20260505231614 | 82 | 250 | 3.0 | 11.0 | 0.00 | 0.00 | 0.00 | 77 | 1003.5 |
| 20260505230124 | 83 | 248 | 4.0 | 10.0 | 0.00 | 0.00 | 0.00 | 77 | 1003.4 |
| 20260505224502 | 82 | 247 | 4.0 | 12.0 | 0.00 | 0.00 | 0.00 | 77 | 1003.4 |
| 20260505223003 | 82 | 270 | 3.0 | 11.0 | 0.00 | 0.00 | 0.00 | 78 | 1003.6 |
| 20260505221503 | 82 | 244 | 4.0 | 12.0 | 0.00 | 0.00 | 0.00 | 78 | 1003.4 |
| 20260505220109 | 83 | 257 | 4.0 | 9.0 | 0.00 | 0.00 | 0.00 | 78 | 1003.6 |
| 20260505214600 | 82 | 229 | 7.0 | 12.0 | 0.00 | 0.00 | 0.00 | 78 | 1003.7 |
| 20260505213110 | 82 | 248 | 6.0 | 13.0 | 0.00 | 0.00 | 0.00 | 79 | 1004.0 |
| 20260505211608 | 82 | 250 | 6.0 | 17.0 | 0.00 | 0.00 | 0.00 | 78 | 1004.2 |
| 20260505210032 | 82 | 207 | 6.0 | 16.0 | 0.00 | 0.00 | 0.00 | 78 | 1004.1 |
| 20260505204511 | 82 | 232 | 6.0 | 20.0 | 0.00 | 0.00 | 0.00 | 78 | 1004.0 |
| 20260505203051 | 82 | 262 | 5.0 | 15.0 | 0.00 | 0.00 | 0.00 | 80 | 1004.3 |
| 20260505201536 | 81 | 238 | 7.0 | 13.0 | 0.00 | 0.00 | 0.00 | 82 | 1004.4 |
| 20260505200034 | 80 | 254 | 7.0 | 16.0 | 0.00 | 0.00 | 0.00 | 82 | 1004.6 |
| 20260505194543 | 80 | 230 | 8.0 | 17.0 | 0.00 | 0.00 | 0.00 | 81 | 1004.6 |
| 20260505193036 | 79 | 202 | 6.0 | 18.0 | 0.00 | 0.00 | 0.00 | 83 | 1005.0 |
| 20260505191603 | 79 | 257 | 6.0 | 17.0 | 0.00 | 0.00 | 0.00 | 84 | 1005.1 |
| 20260505190057 | 78 | 186 | 10.0 | 20.0 | 0.00 | 0.00 | 0.00 | 84 | 1005.1 |
| 20260505184553 | 77 | 274 | 9.0 | 18.0 | 0.00 | 0.00 | 0.00 | 85 | 1005.4 |
| 20260505183018 | 76 | 229 | 7.0 | 16.0 | 0.00 | 0.00 | 0.00 | 86 | 1005.7 |
| 20260505181508 | 76 | 258 | 8.0 | 16.0 | 0.00 | 0.00 | 0.00 | 86 | 1006.0 |
| 20260505180040 | 76 | 220 | 4.0 | 12.0 | 0.00 | 0.00 | 0.00 | 87 | 1006.0 |
| 20260505174507 | 75 | 228 | 6.0 | 16.0 | 0.00 | 0.00 | 0.00 | 87 | 1006.1 |
| 20260505173032 | 75 | 248 | 9.0 | 21.0 | 0.00 | 0.00 | 0.00 | 87 | 1006.1 |
| 20260505171534 | 74 | 255 | 6.0 | 15.0 | 0.00 | 0.00 | 0.00 | 87 | 1006.3 |
| 20260505170008 | 74 | 226 | 7.0 | 13.0 | 0.00 | 0.00 | 0.00 | 88 | 1006.3 |
| 20260505164503 | 74 | 242 | 9.0 | 18.0 | 0.00 | 0.00 | 0.00 | 88 | 1006.3 |
| 20260505163004 | 74 | 215 | 6.0 | 17.0 | 0.00 | 0.00 | 0.00 | 88 | 1006.2 |
| 20260505161529 | 73 | 248 | 7.0 | 20.0 | 0.00 | 0.00 | 0.00 | 88 | 1006.3 |
| 20260505153033 | 72 | 117 | 6.0 | 16.0 | 0.00 | 0.00 | 0.00 | 88 | 1006.4 |
| 20260505151535 | 72 | 123 | 6.0 | 13.0 | 0.00 | 0.00 | 0.00 | 88 | 1006.2 |
| 20260505124542 | 70 | 129 | 3.0 | 10.0 | 0.00 | 0.00 | 0.00 | 87 | 1005.5 |
| 20260505123012 | 70 | 130 | 5.0 | 15.0 | 0.00 | 0.00 | 0.00 | 87 | 1005.5 |
| 20260505121613 | 70 | 135 | 4.0 | 14.0 | 0.00 | 0.00 | 0.00 | 87 | 1005.1 |
| 20260505114553 | 70 | 98 | 4.0 | 10.0 | 0.00 | 0.00 | 0.00 | 86 | 1005.2 |
| 20260505113104 | 70 | 123 | 4.0 | 14.0 | 0.00 | 0.00 | 0.00 | 86 | 1005.1 |
| 20260505111514 | 70 | 107 | 4.0 | 9.0 | 0.00 | 0.00 | 0.00 | 86 | 1005.0 |
| 20260505110124 | 70 | 119 | 5.0 | 12.0 | 0.00 | 0.00 | 0.00 | 86 | 1005.0 |